Location: Bidwell Hollow
(37.7387°N, 90.1707°W)
Time: 02:20:03
(UTC+00:00)

Vanguard 3 - Pass Details

Date: 16 May 2026
Orbit: 507 x 3204 km, 33.3° (Epoch: 6 June)

Event Time Altitude Azimuth Distance (km) Brightness Sun altitude
Rises 21:33:21 0° 265° (W) 6,929 12.8 39.8°
Reaches altitude 10° 21:37:47 10° 264° (W) 6,043 12.8 38.9°
Maximum altitude 21:57:33 77° 184° (S) 3,055 10.7 35.0°
Drops below altitude 10° 22:12:46 10° 101° (ESE) 4,824 10.7 32.0°
Sets 22:15:52 0° 100° (E) 5,532 10.9 31.4°
